Location: Wavehorne
(51.0500°N, 0.8333°E)
Time: 20:30:21
(UTC+00:00)

Cosmos 1125 Rocket - Pass Details

Date: 20 June 2021
Orbit: 757 x 780 km, 74.0° (Epoch: 23 July)

Event Time Altitude Azimuth Distance (km) Brightness Sun altitude
Rises 02:44:29 0° 332° (NNW) 3,245 7.1 -7.0°
Reaches altitude 10° 02:46:55 10° 327° (NNW) 2,318 6.3 -6.8°
Maximum altitude 02:51:58 50° 253° (WSW) 984 3.8 -6.3°
Drops below altitude 10° 02:57:02 10° 180° (S) 2,316 5.5 -5.8°
Sets 02:59:28 0° 175° (S) 3,242 6.3 -5.5°
